Flag for India Weather past 2 weeks in Muktsar, Punjab, India

Now
86 °F

Scattered clouds.


Feels Like: 95 °F
Forecast: 85 / 104 °F
Wind: 8 mph from Northeast

Location: Lahore Airport

Current Time: Aug 1, 2014 at 2:14:53 PM

Latest Report: Aug 1, 2014 at 1:25 PM


Visibility: 3 mi

Pressure: 29.56 "Hg

Humidity: 70%

Dew point: 75 °F

Location of MuktsarLocation

Historic Weather in Muktsar — Graph

°F

Muktsar temperature yesterday

Maximum temperature yesterday: 97 °F (at 1:30 PM)
Minimum temperature yesterday: 84 °F (at 4:25 AM)
Average temperature yesterday: 90 °F

Past Weeks' High & Low Weather Summary

 TemperatureHumidityPressure
High102 °F (Jul 22, 4:55 PM)100% (Jul 18, 12:59 PM)29.68 "Hg (Jul 18, 12:59 PM)
Low75 °F (Jul 29, 10:55 AM)12% (Jul 21, 1:29 PM)29.36 "Hg (Jul 18, 4:55 PM)
Average87 °F71%29.52 "Hg
* Reported Jul 17 12:59 PM — Aug 1 1:25 PM, Muktsar, Weather by CustomWeather, © 2014

Note: Actual official high and low records may vary slightly from our data, if they occured in-between our weather recording intervals... More about our weather records

Advertising

Muktsar weather history for previous 24 hours

 ConditionsComfort  
Time TempWeatherWind HumidityBarometerVisibility
1:25 PM
Aug 1
86 °FScattered clouds.8 mph70%29.56 "Hg3 mi
12:55 PM82 °FBroken clouds.13 mph74%29.59 "Hg2 mi
12:25 PM81 °FBroken clouds.8 mph79%29.59 "Hg2 mi
11:55 AM81 °FThunderstorms. Broken clouds.14 mph79%29.62 "Hg2 mi
11:25 AM84 °FThunderstorms. Broken clouds.17 mph84%29.62 "Hg2 mi
10:55 AM91 °FScattered clouds.3 mph67%29.62 "Hg2 mi
10:25 AM91 °FScattered clouds.3 mph67%29.62 "Hg2 mi
9:55 AM90 °FScattered clouds.6 mph71%29.62 "Hg2 mi
9:25 AM90 °FScattered clouds.6 mph71%29.62 "Hg2 mi
8:00 AM86 °FFog.5 mph79%29.59 "Hg1 mi
7:30 AM84 °FFog.3 mph84%29.56 "Hg1 mi
7:00 AM84 °FFog.3 mph84%29.56 "Hg1 mi
6:30 AM84 °FScattered clouds.3 mph84%29.56 "Hg2 mi
6:00 AM84 °FScattered clouds.5 mph84%29.56 "Hg2 mi
5:30 AM84 °FPassing clouds.3 mph84%29.56 "Hg2 mi
5:00 AM84 °FPassing clouds.3 mph84%29.56 "Hg2 mi
4:30 AM84 °FPassing clouds.6 mph84%29.56 "Hg2 mi
4:00 AM84 °FPassing clouds.6 mph89%29.56 "Hg2 mi
3:30 AM86 °FPassing clouds.7 mph84%29.56 "Hg2 mi
3:00 AM86 °FPassing clouds.5 mph84%29.56 "Hg2 mi
2:30 AM86 °FPassing clouds.5 mph84%29.56 "Hg2 mi
2:00 AM86 °FPassing clouds.6 mph84%29.53 "Hg2 mi
1:30 AM86 °FPassing clouds.5 mph84%29.56 "Hg2 mi
1:00 AM88 °FPassing clouds.7 mph79%29.56 "Hg2 mi
12:30 AM88 °FPassing clouds.6 mph79%29.56 "Hg2 mi
12:00 AM88 °FPassing clouds.7 mph79%29.56 "Hg2 mi
11:25 PM
Jul 31
88 °FPassing clouds.7 mph79%29.53 "Hg2 mi
11:00 PM88 °FPassing clouds.8 mph84%29.56 "Hg2 mi
10:30 PM88 °FPartly cloudy.7 mph84%29.56 "Hg2 mi
10:00 PM88 °FPassing clouds.6 mph79%29.56 "Hg2 mi
9:30 PM90 °FPassing clouds.5 mph75%29.56 "Hg2 mi
9:00 PM90 °FPassing clouds.5 mph75%29.53 "Hg2 mi
8:30 PM90 °FPassing clouds.8 mph75%29.50 "Hg3 mi
8:00 PM91 °FSmoke.9 mph71%29.50 "Hg3 mi
7:30 PM91 °FSmoke.9 mph71%29.50 "Hg3 mi
7:00 PM93 °FSmoke.8 mph67%29.47 "Hg3 mi
6:30 PM93 °FSmoke.8 mph67%29.47 "Hg3 mi
6:00 PM93 °FSmoke.9 mph67%29.47 "Hg3 mi
5:30 PM95 °FSmoke.5 mph63%29.50 "Hg3 mi
5:00 PM93 °FSmoke.3 mph67%29.50 "Hg3 mi
3:30 PM91 °FBroken clouds.3 mph67%29.53 "Hg2 mi
3:00 PM91 °FRain. Broken clouds.No wind67%29.56 "Hg2 mi
2:30 PM93 °FRain. Broken clouds.8 mph56%29.56 "Hg2 mi
2:00 PM97 °FBroken clouds.8 mph56%29.56 "Hg3 mi
Weather by CustomWeather, © 2014

See weather overviewHow to use our weather pages